Regional Weather Roundup
Issued by NWS Huntsville, AL

Home | Current Version | Previous Version | Text Only | Print | Product List | Glossary On
Versions: 1 2 3 4 5 6 7 8 9 10 11 12 13 14 15 16 17 18 19 20 21 22 23 24 25 26 27 28 29 30 31 32 33 34 35 36 37 38 39 40 41 42 43 44 45 46 47 48 49 50
000
ASUS44 KHUN 040810
RWRHUN

WEATHER ROUNDUP FOR THE TENNESSEE VALLEY
NATIONAL WEATHER SERVICE HUNTSVILLE AL
300 AM CDT MON MAY 04 2015

ALZ001>004-040900-
NORTHWEST ALABAMA

CITY           SKY/WX    TMP DP  RH WIND       PRES   REMARKS
COURTLAND HCN    N/A     55  32  41 CALM        N/A
BANKHEAD NF      N/A     55  50  82 CALM        N/A
SHOALS AIRPORT CLEAR     56  50  80 CALM      30.14R
SHOALS TVA RES   N/A     57 N/A N/A MISG        N/A
$$

ALZ005>007-016-040900-
NORTH CENTRAL ALABAMA

CITY           SKY/WX    TMP DP  RH WIND       PRES   REMARKS
CULLMAN AG STN   N/A     50 N/A N/A CALM        N/A
DECATUR AP     CLEAR     53  51  93 CALM      30.15S
HUNTSVILLE AP  CLEAR     59  52  77 E5        30.14F
HUN NWS/UAH      N/A     60  50  69 NE2         N/A
MERIDIANVILLE  CLEAR     52  46  82 CALM      30.15S
REDSTONE ARSN  CLEAR     58  52  79 S2        30.14S
VINEMONT AP    FAIR      55  50  83 CALM      30.17S
$$

ALZ008>010-040900-
NORTHEAST ALABAMA

CITY           SKY/WX    TMP DP  RH WIND       PRES   REMARKS
ALBERTVILLE    CLEAR     57  54  88 CALM      30.15F
FORT PAYNE     CLEAR     48  45  87 NE3       30.17S
SCOTTSBORO HCN   N/A     52 N/A N/A MISG        N/A
VALLEY HEAD      N/A     50 N/A N/A MISG        N/A
$$

TNZ076-096-097-040900-
SOUTHEASTERN MIDDLE TENNESSEE

CITY           SKY/WX    TMP DP  RH WIND       PRES   REMARKS
TULLAHOMA      CLEAR     50  46  87 CALM      30.17R
WINCHESTER     CLEAR     55  48  76 CALM      30.17R
$$

...SURROUNDING SITES...

CITY           SKY/WX    TMP DP  RH WIND       PRES   REMARKS
ATLANTA        CLEAR     62  50  64 CALM      30.19F
ANNISTON       CLEAR     55  52  89 CALM      30.17F
BIRMINGHAM     CLEAR     57  53  86 CALM      30.16F
CHATTANOOGA    CLEAR     55  50  83 CALM      30.18R
CORINTH        FAIR      59  52  77 CALM      30.10R
DALTON         CLEAR     52  52 100 CALM      30.18S
GADSDEN        CLEAR    N/A N/A N/A CALM      30.15F
GOLDEN TRNGL   CLEAR     59  52  77 S8        30.12S
HALEYVILLE       N/A     60  51  72 MISG      30.16F
JACKSON TN     MOCLDY    66  52  60 S6        30.10R
LEWISBURG      FAIR      53  49  86 CALM      30.14R
MEMPHIS        CLEAR     64  54  69 S7        30.08R
NASHVILLE      CLEAR     57  50  77 S5        30.14R
OXFORD MS      LGT RAIN  61  54  77 S5        30.11S
ROME           CLEAR     57  50  77 N3        30.17F
SAVANNAH       CLEAR     59  32  36 SE3       30.12R
TUPELO         CLEAR     61  53  75 SW3       30.11S
TUSCALOOSA     CLEAR     57  54  89 CALM      30.14F
$$

...GULF COAST WEATHER...

CITY           SKY/WX    TMP DP  RH WIND       PRES   REMARKS
GULFPORT       MOCLDY    72  65  78 SE12      30.10F
PASCAGOULA     PTCLDY    61  61 100 CALM      30.12F
MOBILE         CLEAR     62  62 100 NE3       30.13F
GULF SHORES    SUNNY     65  61  87 CALM      30.12F
PENSACOLA      CLEAR     61  60  97 CALM      30.12F
DESTIN         CLEAR     66  62  87 CALM      30.14F
PANAMA CITY    CLEAR     63  60  89 E3        30.16R
APPALACHICOLA  PTCLDY    64  58  80 E6        30.16S
$$




USA.gov is the U.S. government's official web portal to all federal, state and local government web resources and services.